Aeroporto :
LOGIN :

Iscrizione | Disclaimer

   EN    FR    IT 

 










Sommario :    VFR   VFR Marginale   IFR   IFR Intensivo   IFR Molto Intensivo
Visibilità : 
Base nubi : 
>= 8 km
>= 3000ft
5 / 8 km
1000 / 3000 ft
1500m / 5 km
500 / 1000 ft
800 / 1500m
200 / 500 ft
< 800m
< 200 ft
Simboli :   Temporali  Nebbia  Neve Forte  Precipitazioni Forti  Vento > 20 kt
SIGMETs :   Varie  Temporali  Ghiacco  Turbolenza  Onda orograficha  Ceneri Vulcaniche






- Altitudine del aeroporto : 768 ft
- Codice IATA : MXP


LIMC - Milano Malpensa

ULTIMO METAR :
  • 192350Z 01008KT 9999 BKN095 02/M06 Q1035 NOSIG

METARs OBSOLETI :
  • 192320Z 01007KT 9999 BKN095 02/M05 Q1035 NOSIG
  • 192250Z 36007KT 9999 BKN095 M00/M05 Q1035 NOSIG
  • 192220Z 36007KT CAVOK 00/M06 Q1034 NOSIG
  • 192150Z 36006KT CAVOK 01/M04 Q1034 NOSIG
  • 192120Z 36006KT CAVOK 00/M01 Q1034 NOSIG

TAF TAF LIMC
Valido dal 20 a 00 ore il 21 a 06 ore UTC


192300Z 2000/2106 01006KT 9999 BKN090



MetMap, La meteo Aeronautica in un colpo d'occhio ! - Copyright ORBIFLY Dicembre 2007 - Disclaimer

ORBIFLY MET'MAP TEAM :

Programmazione e sviluppo : Alexandra Zaïnal
Concezione : Baudouin d'Aumeries
Aiuto per la programmazione : Marc-Olivier Méhu
Supporto tecnico e logistico : Manuel Goepfert
Aiuto per la traduzione : Arnaldo La Scala

Contatto : metmap@orbifly.com




FONTI E CREDITI :

   NOAA